[[{"header":{"parameterUnit":"m.s-1","parameterCategory":2,"la1":30.2992,"la2":30.254,"lo1":-89.0895,"lo2":-89.0443,"dy":0.0025,"dx":0.0025,"nx":19,"ny":19,"refTime":"2026-04-25T03:00:00:Z","depth":"0","parameterNumber":2,"parameterNumberName":"U-component_of_CURRENTS"},"data":[0,0,0,0.3386,0.3387,0.3481,0.3481,0.3643,0.3645,0,0,0,0,0,0,0,0,0,0,0,0.3347,0.3347,0.3386,0.3387,0.3481,0.3481,0.3643,0.3645,0,0,0,0,0,0,0,0,0,0,0,0.3347,0.3347,0.3347,0.3388,0.3481,0.3481,0.3643,0.3566,0,0,0,0,0,0,0,0,0,0,0.3471,0.3396,0.3347,0.3347,0.3388,0.3481,0.3482,0.3562,0.357,0.3608,0,0.3607,0,0.3627,0.3655,0.3656,0,0,0,0.3403,0.3388,0.3439,0.3347,0.3389,0.348,0.3443,0.3566,0.3576,0.362,0.3609,0.3615,0.363,0.3656,0.3657,0.3691,0.3691,0,0,0.3398,0.3346,0.3432,0.3445,0.3394,0.344,0.3446,0.3572,0.356,0.361,0.3619,0.3632,0.3657,0.3658,0.3692,0.3691,0,0,0,0.3373,0.3342,0.339,0.3438,0.345,0.3442,0.3449,0.3554,0.3576,0.3621,0.3634,0.3658,0.366,0.3693,0.3692,0.3649,0,0,0,0.337,0.3327,0.3387,0.3355,0.3447,0.349,0.3427,0.3568,0.3583,0.3633,0.3658,0.3661,0.3694,0.3692,0.3652,0.362,0,0,0,0.3346,0.3324,0.3335,0.3352,0.3389,0.3489,0.3518,0.3571,0.359,0.3656,0.3662,0.3694,0.3693,0.3654,0.3625,0.3632,0,0,0,0.3293,0.3262,0.3333,0.3303,0.3388,0.3416,0.3517,0.3546,0.3588,0.3659,0.3694,0.3692,0.3655,0.3628,0.3634,0.3585,0.3571,0,0,0.3224,0.3251,0.3238,0.3305,0.3303,0.3406,0.3411,0.3516,0.3576,0.3661,0.3662,0.3651,0.3625,0.3632,0.3477,0.3467,0,0,0,0.3198,0.319,0.3199,0.3218,0.3271,0.333,0.3424,0.3482,0.3563,0.3592,0.3625,0.3609,0.3616,0.359,0.358,0.3448,0.3683,0.3683,0.3684,0.3015,0.3084,0.3064,0.3148,0.3174,0.3279,0.3337,0.3431,0.3502,0.3519,0.3555,0.3501,0.347,0.3463,0.3326,0.354,0.354,0.354,0.354,0.2928,0.2932,0.3,0.3019,0.3099,0.313,0.3276,0.3348,0.3447,0.3492,0.3502,0.352,0.3451,0.3308,0.3537,0.3537,0.3538,0.3538,0.3538,0.2846,0.2858,0.2889,0.2925,0.2954,0.3055,0.3132,0.3254,0.3381,0.3406,0.3412,0.3413,0.3308,0.3425,0.3424,0.3424,0.3424,0.3424,0.3424,0.2755,0.279,0.278,0.2828,0.2833,0.2892,0.3055,0.3143,0.3265,0.3344,0.3344,0.3247,0.3467,0.3495,0.3422,0.3422,0.3423,0.3423,0.3423,0.2662,0.2693,0.267,0.267,0.27,0.2681,0.2875,0.3017,0.3143,0.3173,0.3118,0.3329,0.3345,0.3352,0.3377,0.3278,0.3278,0.3277,0.3277,0.258,0.2601,0.2543,0.2521,0.2541,0.2581,0.258,0.2711,0.2873,0.29,0.2982,0.2964,0.2976,0.2971,0.2986,0.3003,0.2811,0.2811,0.281,0.2494,0.25,0.2412,0.2424,0.2445,0.245,0.2326,0.2288,0.2562,0.2779,0.2801,0.282,0.2786,0.2815,0.2806,0.2838,0.2868,0,0]},{"header":{"parameterUnit":"m.s-1","parameterCategory":2,"la1":30.2992,"la2":30.254,"lo1":-89.0895,"lo2":-89.0443,"dy":0.0025,"dx":0.0025,"nx":19,"ny":19,"refTime":"2026-04-25T03:00:00:Z","depth":"0","parameterNumber":3,"parameterNumberName":"V-component_of_CURRENTS"},"data":[0,0,0,-0.0139,-0.014,-0.0138,-0.0138,-0.0071,-0.007,0,0,0,0,0,0,0,0,0,0,0,-0.0133,-0.0134,-0.0139,-0.014,-0.0138,-0.0138,-0.0071,-0.007,0,0,0,0,0,0,0,0,0,0,0,-0.0133,-0.0134,-0.0134,-0.014,-0.0138,-0.0138,-0.0071,-0.0083,0,0,0,0,0,0,0,0,0,0,-0.0091,-0.0058,-0.0134,-0.0134,-0.014,-0.0138,-0.0138,-0.0085,-0.0083,-0.006,0,-0.0072,0,-0.008,-0.0066,-0.0066,0,0,0,-0.0119,-0.0059,-0.0109,-0.0134,-0.014,-0.0138,-0.0133,-0.0084,-0.0082,-0.0057,-0.0071,-0.0069,-0.0079,-0.0066,-0.0066,0.0029,0.003,0,0,-0.0119,-0.0079,-0.0111,-0.0108,-0.0155,-0.0133,-0.0133,-0.0083,-0.0055,-0.0071,-0.0068,-0.0078,-0.0066,-0.0065,0.0029,0.0029,0,0,0,-0.0133,-0.0078,-0.0129,-0.011,-0.0122,-0.0134,-0.0134,-0.0057,-0.0089,-0.0068,-0.0077,-0.0065,-0.0065,0.0028,0.0029,0.0094,0,0,0,-0.0132,-0.009,-0.013,-0.0098,-0.0124,-0.0087,-0.0107,-0.0092,-0.0087,-0.0078,-0.0065,-0.0064,0.0027,0.0028,0.0091,0.0149,0,0,0,-0.0131,-0.0087,-0.0105,-0.0097,-0.0113,-0.0089,-0.0115,-0.0091,-0.0094,-0.0066,-0.0064,0.0027,0.0028,0.0088,0.0143,0.0202,0,0,0,-0.0067,-0.0054,-0.0103,-0.0073,-0.0114,-0.0095,-0.0115,-0.0079,-0.0051,-0.0065,0.0027,0.0029,0.0088,0.014,0.0198,0.0267,0.029,0,0,-0.0017,-0.0045,-0.0031,-0.0077,-0.0047,-0.0093,-0.0018,-0.0003,-0.0021,0.0018,0.0019,0.0092,0.0143,0.0201,0.0347,0.0369,0,0,0,0.0006,0.0012,0.0016,0.0022,0.0008,0.0031,0.0027,0.0038,0.0071,-0.0006,0.0102,0.0133,0.0167,0.0201,0.0218,0.0153,0.0035,0.0035,0.0035,0.0123,0.0094,0.0137,0.0104,0.012,0.0128,0.0165,0.0177,0.0135,0.0158,0.0193,0.0295,0.0331,0.0344,0.0276,0.0184,0.0184,0.0184,0.0185,0.0197,0.022,0.0209,0.0228,0.0227,0.0271,0.0302,0.0288,0.0345,0.0278,0.0306,0.0277,0.0367,0.0287,0.0189,0.0188,0.0188,0.0187,0.0187,0.0263,0.0275,0.0269,0.0304,0.0356,0.0361,0.0465,0.0454,0.0429,0.0462,0.0478,0.0477,0.0403,0.0457,0.0457,0.0458,0.0458,0.0458,0.0459,0.0334,0.0334,0.0373,0.0391,0.0433,0.0501,0.0561,0.0609,0.062,0.0587,0.0586,0.0444,0.0378,0.0362,0.0467,0.0465,0.0464,0.0464,0.0463,0.042,0.0407,0.048,0.0517,0.0613,0.072,0.0751,0.0839,0.085,0.0867,0.0661,0.0653,0.0646,0.0632,0.0623,0.0788,0.0788,0.0788,0.0788,0.0486,0.0479,0.0601,0.0688,0.0791,0.0841,0.1023,0.106,0.0939,0.0854,0.0756,0.0685,0.0674,0.0662,0.0647,0.0635,0.0801,0.0801,0.08,0.0554,0.0586,0.0696,0.0766,0.0876,0.0986,0.1147,0.1239,0.1015,0.0789,0.0654,0.0654,0.053,0.0519,0.0479,0.0464,0.0435,0,0]}],[{"header":{"parameterUnit":"m.s-1","parameterCategory":2,"la1":30.2992,"la2":30.254,"lo1":-89.0895,"lo2":-89.0443,"dy":0.0025,"dx":0.0025,"nx":19,"ny":19,"refTime":"2026-04-25T03:00:00:Z","depth":"2","parameterNumber":2,"parameterNumberName":"U-component_of_CURRENTS"},"data":[0,0,0,0.2926,0.293,0.3076,0.3076,0.3135,0.3136,0,0,0,0,0,0,0,0,0,0,0,0.286,0.2861,0.2926,0.2931,0.3076,0.3076,0.3135,0.3136,0,0,0,0,0,0,0,0,0,0,0,0.2859,0.2861,0.2863,0.2932,0.3076,0.3076,0.3135,0.3047,0,0,0,0,0,0,0,0,0,0,0.2918,0.2842,0.286,0.2863,0.2933,0.3076,0.3076,0.3044,0.3053,0.3045,0,0.3091,0,0.3138,0.314,0.314,0,0,0,0.2893,0.2835,0.2933,0.2863,0.2935,0.3076,0.3,0.305,0.3059,0.3056,0.3093,0.3096,0.3139,0.3141,0.3141,0.32,0.32,0,0,0.2885,0.2822,0.2926,0.294,0.3002,0.2995,0.3005,0.3057,0.3041,0.3093,0.3099,0.314,0.3141,0.3142,0.3199,0.32,0,0,0,0.2887,0.2816,0.2912,0.2935,0.2986,0.3,0.3011,0.3038,0.3088,0.31,0.3141,0.3141,0.3142,0.3199,0.3199,0.3212,0,0,0,0.2881,0.2822,0.2909,0.2864,0.2986,0.3021,0.299,0.3083,0.3092,0.314,0.3141,0.3143,0.3199,0.3199,0.3212,0.3183,0,0,0,0.2848,0.2816,0.2857,0.2862,0.2951,0.3023,0.3071,0.3086,0.3118,0.314,0.3143,0.3199,0.3199,0.3211,0.3184,0.317,0,0,0,0.2746,0.2762,0.2854,0.2876,0.2951,0.303,0.3072,0.3112,0.313,0.3142,0.3199,0.3199,0.3211,0.3184,0.317,0.2925,0.2904,0,0,0.2705,0.2754,0.2771,0.286,0.2929,0.3005,0.304,0.3094,0.313,0.3166,0.3169,0.3212,0.3184,0.317,0.2943,0.2921,0,0,0,0.2718,0.275,0.2778,0.2851,0.2931,0.2997,0.3068,0.3112,0.3179,0.3155,0.3215,0.3195,0.3187,0.304,0.3023,0.3201,0.3201,0.3201,0.3201,0.261,0.2692,0.2715,0.283,0.2879,0.2995,0.3045,0.3122,0.3163,0.3207,0.321,0.3208,0.3052,0.3036,0.3232,0.3232,0.3232,0.3232,0.3232,0.2582,0.2601,0.2694,0.2751,0.2848,0.29,0.3037,0.3104,0.3188,0.3222,0.3215,0.3064,0.3018,0.3233,0.3233,0.3233,0.3232,0.3232,0.3232,0.2521,0.253,0.2593,0.2674,0.2738,0.2851,0.2919,0.3054,0.3161,0.319,0.3021,0.3017,0.3193,0.3194,0.3194,0.3194,0.3194,0.3193,0.3193,0.2414,0.2474,0.2498,0.259,0.2617,0.2691,0.2859,0.292,0.2959,0.2983,0.2981,0.3194,0.3195,0.319,0.3191,0.3191,0.3192,0.3192,0.3192,0.2326,0.237,0.2378,0.2407,0.2457,0.2377,0.2585,0.2581,0.2696,0.2635,0.2859,0.2868,0.2829,0.2839,0.2824,0.2731,0.2731,0.2731,0.2731,0.2245,0.2279,0.2233,0.2213,0.2208,0.2215,0.2044,0.2061,0.224,0.2295,0.2314,0.2264,0.2291,0.2222,0.2247,0.222,0.197,0.1968,0.1967,0.2181,0.2181,0.2078,0.2073,0.2047,0.1962,0.165,0.1498,0.1681,0.1942,0.2227,0.2671,0.2649,0.2672,0.2609,0.2632,0.2607,0,0]},{"header":{"parameterUnit":"m.s-1","parameterCategory":2,"la1":30.2992,"la2":30.254,"lo1":-89.0895,"lo2":-89.0443,"dy":0.0025,"dx":0.0025,"nx":19,"ny":19,"refTime":"2026-04-25T03:00:00:Z","depth":"2","parameterNumber":3,"parameterNumberName":"V-component_of_CURRENTS"},"data":[0,0,0,-0.004,-0.0042,-0.007,-0.007,0.0001,0.0002,0,0,0,0,0,0,0,0,0,0,0,-0.0031,-0.0032,-0.004,-0.0042,-0.007,-0.007,0.0001,0.0002,0,0,0,0,0,0,0,0,0,0,0,-0.003,-0.0032,-0.0033,-0.0042,-0.007,-0.007,0.0001,0.0004,0,0,0,0,0,0,0,0,0,0,0.0021,0.0058,-0.0031,-0.0033,-0.0042,-0.007,-0.007,0.0003,0.0004,0.0034,0,-0.0002,0,-0.0012,0.0006,0.0006,0,0,0,-0.0008,0.0058,-0.0014,-0.0033,-0.0043,-0.007,-0.0047,0.0003,0.0004,0.0035,-0.0001,0.0001,-0.0011,0.0006,0.0006,0.0087,0.0087,0,0,-0.0006,0.0036,-0.0015,-0.0015,-0.0089,-0.0047,-0.0049,0.0003,0.0027,-0.0001,0.0002,-0.0009,0.0006,0.0007,0.0087,0.0087,0,0,0,-0.0025,0.0038,-0.0034,-0.0017,-0.0038,-0.0049,-0.0051,0.0026,-0.0018,0.0003,-0.0009,0.0007,0.0008,0.0086,0.0087,0.0141,0,0,0,-0.0022,0.0023,-0.0034,0.0002,-0.0041,-0.0007,-0.0027,-0.0021,-0.0016,-0.0009,0.0007,0.0008,0.0086,0.0086,0.0139,0.0194,0,0,0,-0.0023,0.0026,-0.0005,0.0002,-0.0033,-0.001,-0.0046,-0.002,-0.0024,0.0006,0.0008,0.0085,0.0086,0.0136,0.0189,0.0249,0,0,0,0.0061,0.0044,-0.0004,-0.0001,-0.0034,-0.0034,-0.0046,-0.0014,0.0014,0.0007,0.0086,0.0087,0.0136,0.0186,0.0246,0.0283,0.0302,0,0,0.0084,0.0049,0.0049,0.0004,0.001,-0.0026,0.0038,0.0057,0.0041,0.0081,0.0082,0.0139,0.0188,0.0248,0.0342,0.036,0,0,0,0.0088,0.008,0.0078,0.007,0.0047,0.0072,0.0072,0.0084,0.0115,0.0051,0.0145,0.0175,0.0211,0.0226,0.024,0.0092,0.0091,0.0091,0.0091,0.0173,0.0144,0.017,0.0134,0.0142,0.0153,0.019,0.0204,0.0167,0.0185,0.0222,0.0313,0.0329,0.034,0.0208,0.0209,0.0209,0.0209,0.0209,0.022,0.0237,0.023,0.0236,0.0237,0.0276,0.0309,0.0298,0.0355,0.0292,0.0322,0.0286,0.0359,0.0214,0.0213,0.0212,0.0212,0.0211,0.0211,0.028,0.0289,0.028,0.0305,0.0351,0.0357,0.0466,0.0454,0.0429,0.0462,0.0466,0.0465,0.0365,0.046,0.046,0.0461,0.0461,0.0462,0.0462,0.0346,0.0342,0.0375,0.0385,0.0428,0.05,0.056,0.0613,0.0609,0.056,0.056,0.0399,0.0391,0.038,0.047,0.0469,0.0468,0.0467,0.0466,0.0419,0.041,0.0477,0.0514,0.0618,0.0719,0.0757,0.0822,0.0832,0.0834,0.062,0.0614,0.061,0.0597,0.0593,0.0732,0.0732,0.0732,0.0732,0.0481,0.0473,0.0596,0.0691,0.0807,0.0846,0.0985,0.0961,0.0864,0.0762,0.076,0.0691,0.068,0.0674,0.066,0.0654,0.081,0.081,0.081,0.0541,0.0578,0.069,0.077,0.0896,0.0991,0.1059,0.1001,0.084,0.0809,0.0732,0.0746,0.0634,0.0621,0.06,0.0583,0.0568,0,0]}],[{"header":{"parameterUnit":"m.s-1","parameterCategory":2,"la1":30.2992,"la2":30.254,"lo1":-89.0895,"lo2":-89.0443,"dy":0.0025,"dx":0.0025,"nx":19,"ny":19,"refTime":"2026-04-25T03:00:00:Z","depth":"4","parameterNumber":2,"parameterNumberName":"U-component_of_CURRENTS"},"data":[0,0,0,0.0132,0.0133,0.0284,0.0285,0.0415,0.0416,0,0,0,0,0,0,0,0,0,0,0,0.0082,0.0082,0.0131,0.0133,0.0284,0.0285,0.0415,0.0416,0,0,0,0,0,0,0,0,0,0,0,0.0082,0.0082,0.0082,0.0134,0.0284,0.0285,0.0415,0.0328,0,0,0,0,0,0,0,0,0,0,0.0194,0.0179,0.0082,0.0082,0.0134,0.0284,0.0286,0.0325,0.0333,0.0315,0,0.0312,0,0.0343,0.0419,0.0419,0,0,0,0.0178,0.0172,0.0164,0.0082,0.0135,0.0283,0.0229,0.033,0.034,0.0326,0.0314,0.032,0.0346,0.0419,0.042,0.0568,0.0569,0,0,0.017,0.0164,0.0157,0.0169,0.0138,0.0224,0.0233,0.0337,0.0358,0.0315,0.0323,0.0348,0.042,0.042,0.0567,0.0568,0,0,0,0.0116,0.0158,0.0152,0.0163,0.0182,0.0227,0.0238,0.0355,0.0338,0.0325,0.0349,0.042,0.0421,0.0566,0.0567,0.0748,0,0,0,0.0113,0.0123,0.0147,0.0154,0.0179,0.0288,0.0253,0.0332,0.0344,0.0349,0.042,0.0421,0.0564,0.0567,0.0741,0.0738,0,0,0,0.0081,0.0122,0.0116,0.0151,0.0191,0.0286,0.0282,0.0337,0.0356,0.0419,0.0421,0.0563,0.0566,0.0733,0.0728,0.0727,0,0,0,0.0103,0.0106,0.0117,0.0139,0.0188,0.0291,0.0282,0.0417,0.0487,0.042,0.0564,0.0567,0.0731,0.0722,0.0723,0.0565,0,0,0,0.0114,0.0108,0.0118,0.0129,0.0226,0.0275,0.0432,0.0532,0.0519,0.0529,0.0534,0.0743,0.0728,0.0726,0.0746,0,0,0,0,0.0127,0.0143,0.0171,0.0229,0.0293,0.0438,0.0538,0.0589,0.0714,0.056,0.0754,0.0736,0.073,0.0627,0.0582,0.0582,0.0581,0.0581,0.0581,0.029,0.0263,0.0306,0.0321,0.0417,0.0587,0.0693,0.0778,0.0788,0.0894,0.0897,0.1025,0.0933,0.0951,0.0952,0.0953,0.0953,0.0954,0.0954,0.0324,0.0308,0.0376,0.0412,0.0561,0.0733,0.0878,0.0953,0.1057,0.1056,0.1045,0.0843,0.0972,0.0969,0.0966,0.0964,0.0962,0.0961,0.096,0.035,0.0322,0.0367,0.0448,0.0673,0.0859,0.0954,0.1083,0.1167,0.1211,0.1055,0.1093,0.1057,0.1237,0.1237,0.1237,0.1237,0.1237,0.1237,0.0342,0.0349,0.0399,0.0502,0.0635,0.0823,0.1022,0.1045,0.1158,0.1171,0.1255,0.1117,0.1107,0.1069,0.1239,0.1238,0.1238,0.1238,0.1238,0.0303,0.0311,0.0342,0.0429,0.0676,0.0745,0.0895,0.0978,0.1007,0.1013,0.1115,0.1121,0.1,0.0992,0.0944,0.1083,0.1081,0.108,0,0.03,0.029,0.0377,0.0493,0.062,0.0739,0.0738,0.0811,0.0929,0.0961,0.0996,0.1112,0.1116,0.0975,0.0965,0.0907,0,0,0,0.0322,0.0315,0.0409,0.0511,0.066,0.0725,0.0774,0.081,0.0921,0.0878,0.1042,0.1052,0.1027,0.1242,0.1066,0.1055,0.0981,0,0]},{"header":{"parameterUnit":"m.s-1","parameterCategory":2,"la1":30.2992,"la2":30.254,"lo1":-89.0895,"lo2":-89.0443,"dy":0.0025,"dx":0.0025,"nx":19,"ny":19,"refTime":"2026-04-25T03:00:00:Z","depth":"4","parameterNumber":3,"parameterNumberName":"V-component_of_CURRENTS"},"data":[0,0,0,0.0567,0.057,0.0641,0.064,0.0459,0.0457,0,0,0,0,0,0,0,0,0,0,0,0.0524,0.0525,0.0567,0.057,0.0641,0.064,0.0459,0.0457,0,0,0,0,0,0,0,0,0,0,0,0.0523,0.0525,0.0526,0.0571,0.0641,0.064,0.046,0.0464,0,0,0,0,0,0,0,0,0,0,0.0425,0.0447,0.0524,0.0526,0.0572,0.0641,0.064,0.0467,0.0463,0.0363,0,0.0399,0,0.0444,0.0442,0.0442,0,0,0,0.0528,0.0451,0.0473,0.0526,0.0573,0.0641,0.0597,0.0467,0.0463,0.0357,0.0397,0.0393,0.0441,0.0441,0.044,0.026,0.026,0,0,0.0525,0.0519,0.0477,0.0472,0.0618,0.0595,0.06,0.0467,0.0465,0.0397,0.0391,0.0438,0.044,0.0438,0.026,0.026,0,0,0,0.0542,0.0517,0.0546,0.0476,0.0523,0.0598,0.0603,0.0471,0.0484,0.0389,0.0436,0.0438,0.0436,0.0261,0.026,0.0395,0,0,0,0.0537,0.053,0.0545,0.054,0.0528,0.0539,0.061,0.0492,0.0481,0.0437,0.0438,0.0434,0.0261,0.026,0.0392,0.0453,0,0,0,0.0516,0.0528,0.0546,0.054,0.0594,0.0544,0.0548,0.0491,0.0509,0.0441,0.0433,0.0261,0.026,0.039,0.0447,0.0387,0,0,0,0.0491,0.0522,0.0546,0.0587,0.0594,0.0611,0.055,0.0537,0.0488,0.0437,0.0261,0.026,0.0389,0.0444,0.0385,0.034,0,0,0,0.051,0.0524,0.0545,0.057,0.0639,0.0597,0.0597,0.0511,0.043,0.0278,0.0276,0.0393,0.0447,0.0386,0.029,0,0,0,0,0.0537,0.058,0.0597,0.0651,0.0648,0.0649,0.0579,0.0519,0.0426,0.0409,0.0337,0.0366,0.0324,0.029,0.0256,0.0256,0.0256,0.0256,0.0256,0.0558,0.0591,0.0649,0.0696,0.0704,0.066,0.0615,0.0507,0.0441,0.0414,0.0436,0.0429,0.0398,0.0385,0.0385,0.0386,0.0386,0.0387,0.0387,0.0603,0.0636,0.07,0.0799,0.0796,0.0801,0.0658,0.0607,0.0495,0.0471,0.0423,0.0387,0.0399,0.0397,0.0395,0.0393,0.0392,0.0392,0.0391,0.0601,0.0624,0.0734,0.0851,0.0934,0.0914,0.0812,0.0737,0.0616,0.0592,0.0473,0.0471,0.0501,0.0563,0.0563,0.0563,0.0563,0.0563,0.0563,0.0541,0.0639,0.0755,0.0907,0.0988,0.1011,0.092,0.0785,0.0683,0.0595,0.0627,0.0486,0.048,0.0505,0.0564,0.0564,0.0564,0.0564,0.0564,0.0525,0.0582,0.0722,0.0828,0.0969,0.0955,0.0912,0.0721,0.0587,0.0476,0.0532,0.0533,0.0457,0.045,0.0473,0.0524,0.0523,0.0523,0,0.0472,0.0517,0.0675,0.0783,0.0826,0.0885,0.0707,0.0599,0.051,0.0552,0.0522,0.0592,0.0591,0.0509,0.0502,0.053,0,0,0,0.0432,0.0496,0.0564,0.0715,0.0779,0.0693,0.0659,0.0607,0.0592,0.0429,0.0513,0.0516,0.0457,0.0565,0.0448,0.0442,0.0474,0,0]}]]